Simultaneous Nadir Overpasses (SNOs) Predictions

Prediction of SNOs between GOES-16 and LANDSAT-8 Satellite Orbit:

Table of predicted SNOs for the next 14.0 days since TLE Epoch: 1/28/2023
Index Date Time (GOES-16) GOES-16 Lat,Lon LANDSAT-8 Lat,Lon Distance(km) Time Diff (sec)
1 01/28/2023 15:00:46 0.01, -75.19 -0.56, -72.46 311.00 80
2 01/29/2023 03:24:50 -0.02, -75.18 -0.56, -77.65 280.49 80
3 01/31/2023 03:09:59 -0.01, -75.19 0.08, -74.69 56.06 80
4 02/02/2023 02:57:48 -0.01, -75.20 0.74, -71.75 393.13 80
5 02/02/2023 15:21:43 0.01, -75.22 0.39, -76.90 191.55 80
6 02/04/2023 15:06:52 0.02, -75.23 -0.28, -73.95 146.65 80
7 02/05/2023 03:30:55 -0.02, -75.23 -0.88, -79.13 444.08 80
8 02/06/2023 14:54:39 0.03, -75.26 -0.85, -70.98 485.80 80
9 02/07/2023 03:18:43 -0.03, -75.26 -0.24, -76.17 104.76 80
10 02/09/2023 03:03:51 -0.03, -75.29 0.42, -73.22 235.24 80
11 02/09/2023 15:25:06 0.03, -75.31 0.70, -78.37 349.02 80
